User: anonymous   Login
Location: Fort Wayne
(41.1310°N, 85.1290°W)
Time: 02:45:53
(UTC-04:00)
Language:

SL-08 RB Rocket - Orbit

View from above orbital plane
View from above orbital plane
View from above satellite
View from above satellite

Ground track
Ground track

The orbit data is extracted from the following two-line orbital elements,

1 26387U 00033D   15242.22233672  .00000225  00000-0  47809-4 0  9994
2 26387 098.0568 309.0971 0025297 262.4411 165.5987 14.67953910811486
Epoch (UTC): 30 August 2015 05:20:09
Eccentricity: 0.0025297
inclination: 98.0568°
perigee height: 650 km
apogee height: 685 km
right ascension of ascending node: 309.0971°
argument of perigee: 262.4411°
revolutions per day: 14.67953910
mean anomaly at epoch: 165.5987°
orbit number at epoch: 81148

The dashed part of the orbit path shows where the satellite is in the earth's shadow,  

DLR